{"data":{"norad_id":66583,"epoch":"2026-09-20T20:51:36.230112Z","epoch_age_seconds":54603,"freshness":"FRESH","line1":"1 66583U 25268AC  26263.86916933  .00011280  00000+0  41869-3 0  9997","line2":"2 66583  42.9983 324.4621 0001255 277.4438  82.6271 15.27589384 47813","mean_motion":15.27589384,"eccentricity":0.0001255,"inclination_deg":42.9983,"raan_deg":324.4621,"arg_perigee_deg":277.4438,"mean_anomaly_deg":82.6271,"bstar":0.00041869,"rev_number":4781,"period_min":94.266169631878,"perigee_km":482.15992178298,"apogee_km":483.88207244026,"semimajor_km":6861.1579971116,"source":"CELESTRAK","updated_at":"2026-09-21T09:00:35.975000Z"}}